Wind_Speed
6 5 10 23 15 12 5 6 7 9 8 7 13 17 21 18 8 15 17 15 14 17 23 24 36 41 41 42 44 46 46 45 41 39 38 35 36 33 31 29 27 25 22 20
3 12 18 7 8 12 12 18 19 13 15 10 10 18 13 13 17 13 18 18 19 19 9 10 24 33 40 45 46 45 48 48 46 45 43 32 37 36 33 31 29 27 25 22
19 8 16 14 9 8 17 14 18 15 7 6 8 11 9 12 16 14 14 18 17 22 13 10 11 28 33 38 44 48 49 49 46 43 41 30 27 26 32 32 31 30 27 24
11 15 14 8 8 14 23 9 12 9 3 14 6 19 7 8 16 14 18 16 19 20 9 8 11 19 32 38 42 45 47 48 47 46 43 39 34 28 32 35 37 34 31 28
10 3 6 13 23 9 19 4 9 3 5 5 5 7 4 8 10 12 15 16 20 13 11 11 16 29 35 36 42 46 47 47 47 49 46 43 33 32 31 36 38 37 33 29
12 2 4 7 1 5 3 2 2 2 2 11 9 11 13 7 13 7 16 15 18 11 10 9 12 20 25 29 33 37 42 44 45 47 46 47 38 35 32 35 38 38 36 33
4 13 10 5 3 1 3 5 3 3 1 11 12 11 25 8 8 14 17 18 18 8 8 9 11 11 19 29 32 34 36 36 41 44 45 45 43 41 41 40 38 39 39 37
3 13 10 7 19 9 9 14 7 8 6 13 4 8 7 14 16 10 12 14 8 9 9 10 12 12 20 28 33 34 36 35 41 45 45 43 44 41 42 43 41 42 42 41
4 8 2 1 0 10 5 7 12 3 2 2 12 14 9 6 10 10 16 10 8 9 9 10 9 12 20 25 32 39 36 35 39 45 42 43 44 43 43 44 43 42 41 38
8 10 3 1 2 3 3 0 2 3 4 7 15 8 15 6 17 17 10 11 10 8 8 8 9 10 21 27 33 36 36 38 39 40 42 42 43 45 42 43 43 43 40 35
3 6 7 3 8 8 1 4 5 3 4 13 17 15 7 8 7 10 11 10 9 9 10 9 9 12 22 28 33 35 38 39 40 44 44 41 44 44 44 43 44 44 39 36
3 1 3 11 7 4 5 12 17 13 19 3 5 15 4 12 9 5 3 5 6 7 8 8 9 9 18 26 28 36 37 37 45 41 39 44 40 43 43 43 43 42 40 38
5 3 7 7 10 2 7 6 10 7 3 17 14 20 3 13 11 8 8 8 7 6 7 7 7 10 13 20 24 29 33 42 40 39 41 39 42 43 43 43 43 41 39 36
10 10 13 19 19 3 4 11 12 10 10 18 21 30 34 32 30 26 22 12 11 10 9 9 8 8 8 20 25 29 31 36 37 38 37 37 40 42 41 42 41 41 39 37
11 11 18 27 30 27 31 32 31 25 21 13 28 20 29 37 24 24 20 17 11 10 8 9 10 9 11 15 24 28 30 34 38 36 36 37 38 40 42 42 41 41 39 37
10 16 15 20 26 30 33 33 33 32 36 28 34 34 34 36 35 30 33 26 17 18 19 15 11 12 12 10 22 28 29 34 37 36 36 36 40 42 44 42 44 42 39 36
16 10 12 25 22 25 20 32 37 36 29 22 24 33 37 35 31 35 32 18 17 19 18 10 13 16 14 17 28 25 32 31 33 29 29 33 35 35 35 39 42 40 39 36
15 12 9 15 13 21 18 18 28 33 32 30 30 33 32 31 32 26 21 21 22 18 11 10 10 11 18 28 26 24 22 26 30 28 30 33 33 32 34 40 40 37 37 34
22 20 11 11 13 13 5 9 14 17 27 25 25 25 25 26 27 27 15 22 21 20 16 15 15 19 22 23 22 23 23 26 27 28 31 34 38 37 40 37 34 34 35 35
13 16 16 15 21 21 15 12 19 19 20 25 14 18 19 19 7 6 22 18 19 20 13 9 10 10 13 18 21 24 20 22 24 32 34 34 35 34 33 32 32 32 32 31
8 9 17 17 19 8 11 17 13 7 11 24 11 11 14 9 6 13 17 20 15 10 10 18 15 10 10 12 20 16 19 21 22 23 29 34 36 38 38 36 31 31 29 28
5 4 9 7 15 24 23 8 9 15 19 19 14 20 17 13 13 13 17 19 21 18 15 14 7 6 9 7 13 12 13 16 22 27 29 31 34 34 36 36 32 35 32 26
7 3 5 6 10 26 4 17 17 10 10 13 13 16 17 20 18 17 15 16 17 18 14 15 5 9 10 13 14 8 6 14 22 26 25 26 28 31 36 34 31 27 28 26
6 8 7 14 3 23 24 13 11 10 13 12 10 13 13 17 18 19 16 15 14 14 12 16 7 7 9 20 21 27 20 22 25 23 23 27 28 26 30 30 34 32 28 24
11 13 8 17 18 18 15 16 15 17 16 11 12 16 17 14 15 16 18 18 15 15 15 16 12 12 18 19 24 26 26 28 29 25 23 23 24 26 27 29 32 33 32 37
14 17 12 18 21 13 19 15 14 9 12 15 15 16 16 16 18 19 19 18 16 15 18 14 15 16 24 26 25 29 33 36 33 31 34 38 35 32 29 27 23 21 27 25
Wind_Direction
206 151 209 224 209 232 232 261 239 265 251 180 228 235 246 260 218 245 255 259 249 240 250 228 218 210 199 196 195 194 191 198 199 197 197 201 204 206 207 212 214 212 211 208
249 221 227 238 205 230 244 259 268 278 264 202 246 245 243 255 253 223 237 245 247 252 253 220 206 192 188 189 191 188 193 197 200 200 201 200 205 208 210 212 215 215 212 210
226 228 220 225 232 262 244 244 260 265 301 250 296 267 232 248 248 249 238 243 255 248 241 224 181 188 182 182 185 190 192 198 200 201 200 200 206 212 210 211 212 215 215 212
249 241 238 203 223 210 263 225 244 244 236 270 151 291 231 242 248 247 252 246 242 248 223 207 184 182 186 190 187 189 192 197 200 204 199 198 199 202 206 205 211 213 216 213
231 235 220 234 235 190 257 223 239 240 240 313 176 285 231 187 241 250 249 245 254 241 210 200 189 191 193 184 185 189 193 196 200 205 204 201 206 209 210 211 213 212 214 216
249 139 232 214 126 189 123 75 355 30 80 265 174 202 261 192 219 244 246 249 255 240 202 201 193 181 180 183 183 186 189 195 201 206 205 207 205 205 204 209 210 210 210 212
300 235 214 153 183 222 155 100 295 313 346 251 186 210 253 290 249 220 232 237 239 179 171 167 164 174 172 178 183 187 190 194 199 204 207 209 211 210 211 214 209 206 209 208
245 290 160 185 208 193 195 202 184 206 233 278 137 245 256 214 230 230 237 229 195 184 191 183 182 181 182 185 186 188 194 198 201 206 209 212 214 212 216 221 217 215 212 211
231 257 300 92 273 168 187 182 228 299 126 27 265 270 290 241 247 248 239 237 205 206 193 196 188 185 184 184 191 197 199 202 207 208 207 211 215 213 215 220 220 220 218 218
229 257 198 171 237 266 159 78 109 236 209 246 261 262 265 272 270 258 265 214 220 206 207 213 202 190 191 195 200 204 206 205 208 212 212 212 214 218 217 219 218 218 219 216
322 266 257 157 204 183 86 247 234 293 193 250 263 271 217 242 248 258 246 220 196 212 216 210 212 198 197 202 204 205 211 212 212 214 213 210 214 217 218 220 221 218 215 211
155 262 296 250 297 272 254 229 228 241 251 240 270 262 185 252 233 186 311 290 230 216 214 211 209 183 197 204 204 206 210 209 218 215 210 214 212 217 218 219 219 215 209 209
165 160 243 287 289 231 217 222 230 253 281 249 252 260 165 255 272 308 288 278 270 240 247 225 202 204 211 210 207 210 212 217 217 213 212 208 212 214 215 215 213 206 207 209
180 198 232 246 236 197 237 258 242 233 253 258 250 263 277 265 263 272 273 240 235 245 228 224 224 215 218 217 214 215 217 218 215 211 206 204 206 209 209 210 208 203 207 207
184 232 221 235 241 244 251 255 255 250 240 238 260 252 263 270 270 273 275 260 254 254 232 221 220 223 230 225 224 221 219 216 214 205 202 203 203 205 205 204 201 202 207 207
193 243 233 231 227 233 244 245 251 254 255 248 246 257 254 268 275 273 264 262 263 256 249 246 241 232 242 218 224 222 216 213 212 203 201 196 196 198 199 195 195 198 202 202
218 210 222 249 233 242 246 239 240 245 247 245 244 244 256 265 261 261 272 281 263 256 254 233 238 237 234 235 234 217 222 215 202 198 195 190 186 184 185 187 192 195 199 199
276 263 245 247 237 231 235 235 237 244 247 249 246 248 249 257 270 272 277 268 271 266 248 240 238 234 226 233 230 224 217 204 194 189 188 186 179 177 181 187 189 188 192 194
230 241 252 259 252 271 340 235 218 221 244 256 274 265 271 276 271 280 321 339 303 289 273 258 246 232 240 229 215 200 191 188 179 181 182 181 181 176 183 182 180 182 181 183
259 246 246 248 254 258 263 272 268 247 260 360 10 4 354 344 304 307 346 341 337 335 314 309 282 236 220 215 192 173 169 169 185 188 186 182 179 179 176 178 179 182 186 184
302 286 254 260 269 267 12 360 304 240 357 335 326 360 344 326 286 300 316 324 329 323 330 343 345 317 274 201 180 164 167 192 197 187 183 181 183 182 182 179 175 178 176 175
279 297 284 312 262 254 11 353 357 321 302 306 316 327 312 294 289 286 292 305 311 316 324 330 322 310 317 256 207 173 192 192 189 188 184 181 182 177 176 173 170 171 172 169
285 344 319 321 312 308 314 310 302 304 305 316 310 315 320 308 315 315 304 308 303 303 308 311 260 286 261 240 228 224 238 203 184 183 178 180 178 176 175 165 162 162 165 165
275 282 293 315 281 296 302 304 305 15 350 333 321 310 301 311 313 307 306 304 303 301 288 287 257 243 237 236 225 234 221 200 191 177 178 175 177 174 170 170 168 168 170 169
266 296 274 283 282 291 292 312 337 329 317 322 314 306 300 306 302 302 299 299 293 290 290 277 279 275 270 252 232 229 220 200 177 174 174 176 181 179 175 177 173 172 180 179
260 259 268 275 291 302 297 315 317 350 335 319 307 307 309 310 306 305 298 295 296 297 291 290 284 271 272 263 243 229 217 200 185 181 181 182 181 183 183 173 165 181 178 174
Height
795 807 809 786 792 785 790 792 792 779 767 776 775 766 758 747 754 750 742 738 738 733 716 722 725 728 735 742 747 753 759 766 773 780 785 790 790 795 797 799 801 804 807 809
796 800 783 781 786 789 791 791 787 773 765 773 769 761 754 747 737 739 734 728 724 719 716 714 716 721 724 729 736 744 750 757 763 769 775 781 784 789 792 795 797 799 801 805
782 779 774 779 786 790 779 785 779 779 770 767 770 760 755 740 729 725 721 716 712 707 707 708 712 713 718 723 727 734 741 749 756 762 770 776 783 787 789 789 792 795 798 801
784 769 770 781 785 780 774 771 771 773 778 777 770 743 743 735 729 723 712 707 702 694 698 699 704 709 710 712 720 727 735 742 748 754 761 766 767 771 772 778 783 788 793 795
767 762 774 775 764 772 760 766 771 772 780 776 770 783 727 726 730 719 704 698 686 685 689 693 694 693 698 707 711 718 726 734 739 744 750 757 762 766 769 774 779 782 787 791
769 763 763 765 765 763 763 767 773 778 786 781 773 770 689 733 714 708 697 690 682 678 680 683 686 691 696 705 712 717 722 727 733 738 744 748 753 759 766 768 772 776 781 785
766 758 751 757 766 768 765 774 795 802 811 771 745 760 699 703 699 692 686 679 671 674 678 683 686 690 696 700 707 714 719 724 729 733 738 742 747 752 757 761 764 769 773 777
777 760 755 748 748 755 762 753 778 788 782 742 749 749 710 684 676 680 676 668 669 673 676 677 680 684 689 694 700 707 711 717 720 725 729 735 741 745 750 753 757 761 765 769
772 763 746 747 743 744 753 762 739 757 793 785 713 710 691 682 683 679 672 668 673 673 674 676 677 680 684 690 694 698 705 710 713 715 722 726 731 735 739 744 749 755 760 766
744 753 743 748 746 745 745 747 760 764 766 769 716 714 693 680 674 664 671 671 671 672 675 675 674 676 680 684 688 694 698 700 706 712 716 719 722 727 731 736 741 747 755 762
747 745 743 751 750 745 758 751 749 746 746 724 722 696 677 674 670 669 663 660 666 669 670 670 670 672 675 678 682 686 691 695 699 700 704 709 713 719 725 728 733 738 748 755
747 751 758 741 734 731 731 722 721 730 718 745 724 701 665 662 658 660 659 658 661 661 661 663 666 669 673 673 676 675 679 683 686 691 696 700 706 712 718 723 727 733 740 747
743 760 756 755 737 733 731 726 713 715 723 715 720 696 661 660 665 661 664 663 659 658 658 660 664 665 666 666 667 669 671 671 676 682 686 692 697 703 708 714 721 728 736 742
737 748 737 717 706 705 715 716 709 715 718 703 700 681 662 656 654 652 654 656 655 655 657 658 658 658 658 658 658 659 661 663 667 673 678 683 688 694 701 706 714 723 729 735
731 732 731 717 710 707 707 701 698 701 707 720 686 693 666 636 648 644 645 642 646 647 649 648 649 651 650 650 650 649 650 654 657 663 668 672 679 687 692 698 706 716 723 728
725 711 714 705 706 704 698 688 686 688 684 679 674 673 657 647 641 640 628 633 643 639 636 637 640 640 639 638 638 638 639 642 649 654 656 661 666 675 683 689 696 705 716 721
704 707 699 682 693 692 694 682 669 664 659 660 669 650 639 639 636 620 617 631 630 627 624 629 628 627 625 624 625 627 628 632 639 648 654 657 662 670 683 687 693 700 709 717
707 703 685 665 674 664 650 649 654 650 645 642 640 631 627 625 621 623 621 618 615 615 619 618 617 617 613 613 617 617 621 626 633 641 649 654 657 666 680 683 687 692 702 711
687 683 674 670 661 644 652 647 646 648 636 634 638 636 632 628 623 616 628 631 620 613 610 607 604 604 604 606 607 610 615 620 627 635 641 645 650 658 669 673 680 688 693 696
673 673 666 655 640 633 619 635 630 624 630 676 669 668 668 656 634 625 640 644 634 624 614 610 604 602 602 601 600 603 611 617 623 625 630 637 646 658 665 673 681 687 695 700
683 671 660 652 639 638 673 667 654 642 673 678 677 672 673 670 665 657 652 643 638 633 623 614 611 611 605 603 602 606 610 611 618 625 629 635 642 648 655 665 674 685 692 697
713 703 681 671 637 630 682 673 690 690 683 682 673 668 670 666 658 653 646 637 632 625 619 616 613 611 616 618 613 607 607 610 615 623 630 634 638 643 649 658 668 673 684 694
716 706 719 725 691 678 684 688 684 683 674 668 671 673 673 669 652 644 640 636 632 625 617 611 611 613 612 617 615 613 616 619 617 623 630 637 642 644 646 649 661 673 678 684
718 709 708 709 688 686 678 680 674 678 677 676 679 677 674 659 650 645 642 636 631 623 619 612 609 608 605 607 606 609 610 611 616 623 630 632 640 643 643 647 651 660 671 680
716 710 710 695 686 676 676 673 673 673 676 677 679 673 663 654 647 646 641 635 628 622 617 611 604 602 599 595 596 598 600 602 605 615 626 632 639 643 642 642 643 646 657 660
707 703 698 685 678 683 676 676 680 682 684 683 678 670 664 658 653 648 641 631 625 615 613 606 601 598 594 592 588 587 589 592 600 599 602 604 616 630 638 642 646 650 652 661